Home   Weather   Sangerhausen   Past weeks

Flag for Germany Past Weather in Sangerhausen, Saxony-Anhalt, Germany — Yesterday and Last 2 Weeks

Now
10 °F

Ice fog.


Feels Like: 0 °F
Forecast: 20 / 31 °F
Wind: 7 mph from Southwest

Location: Erfurt-Bindersleben

Current Time: Jan 23, 2017 at 1:56:56 am

Latest Report: Jan 23, 2017 at 1:20 am


Visibility: 2 mi

Pressure: 30.21 "Hg

Humidity: 92%

Dew Point: 9 °F

Location of SangerhausenLocation

Past Weather in Sangerhausen — Graph

°F

Sangerhausen Temperature Yesterday

Maximum temperature yesterday: 23 °F (at 12:20 am)
Minimum temperature yesterday: 10 °F (at 11:50 pm)
Average temperature yesterday: 20 °F

High & Low Weather Summary for the Past Weeks

 TemperatureHumidityPressure
High39 °F (Jan 12, 11:20 am)100% (Jan 8, 5:20 am)30.69 "Hg (Jan 8, 5:20 am)
Low10 °F (Jan 22, 11:50 pm)59% (Jan 20, 2:50 pm)29.00 "Hg (Jan 13, 3:50 am)
Average27 °F87%30.14 "Hg
* Reported Jan 8 12:20 am — Jan 23 12:50 am, Sangerhausen, Weather by CustomWeather, © 2017

Note: Actual official high and low records may vary slightly from our data, if they occured in-between our weather recording intervals... More about our weather records

Advertising

Sangerhausen Weather History for the Previous 24 Hours

Scroll right to see more
 ConditionsComfort  
Time TempWeatherWind HumidityBarometerVisibility
12:50 am
Mon, Jan 23
10 °FIce fog.3 mph92%30.21 "Hg2 mi
12:20 am10 °FIce fog.7 mph92%30.24 "Hg1 mi
11:50 pm
Sun, Jan 22
10 °FIce fog.6 mph100%30.24 "Hg1 mi
11:20 pm12 °FIce fog.6 mph92%30.24 "Hg1 mi
10:50 pm12 °FIce fog.6 mph92%30.24 "Hg1 mi
10:20 pm14 °FIce fog.3 mph92%30.24 "Hg0 mi
9:50 pm14 °FIce fog.5 mph92%30.24 "Hg0 mi
9:20 pm14 °FIce fog.5 mph100%30.24 "Hg0 mi
8:50 pm16 °FIce fog.3 mph100%30.24 "Hg0 mi
8:20 pm16 °FIce fog.1 mph100%30.24 "Hg0 mi
7:50 pm18 °FIce fog.2 mph93%30.24 "Hg0 mi
7:20 pm18 °FIce fog.2 mph100%30.24 "Hg0 mi
6:50 pm18 °FIce fog.2 mph100%30.24 "Hg0 mi
6:20 pm19 °FIce fog.2 mph100%30.24 "Hg0 mi
5:50 pm19 °FIce fog.1 mph100%30.24 "Hg0 mi
5:20 pm21 °FIce fog.1 mph100%30.24 "Hg0 mi
4:50 pm21 °FIce fog.1 mph100%30.24 "Hg0 mi
4:20 pm21 °FIce fog.1 mph100%30.24 "Hg0 mi
3:50 pm23 °FIce fog.1 mph100%30.24 "Hg0 mi
3:20 pm23 °FIce fog.1 mph100%30.24 "Hg0 mi
2:50 pm23 °FIce fog.1 mph100%30.24 "Hg0 mi
2:20 pm23 °FIce fog.2 mph100%30.27 "Hg0 mi
1:50 pm23 °FIce fog.2 mph100%30.27 "Hg0 mi
1:20 pm21 °FIce fog.2 mph100%30.27 "Hg0 mi
12:50 pm21 °FIce fog.2 mph100%30.27 "Hg0 mi
12:20 pm21 °FIce fog.1 mph100%30.30 "Hg0 mi
11:50 am19 °FIce fog.3 mph93%30.30 "Hg0 mi
11:20 am19 °FIce fog.3 mph93%30.30 "Hg0 mi
10:50 am19 °FIce fog.3 mph93%30.30 "Hg0 mi
10:20 am19 °FIce fog.3 mph93%30.30 "Hg0 mi
9:50 am19 °FIce fog.3 mph100%30.30 "Hg0 mi
9:20 am19 °FIce fog.3 mph100%30.33 "Hg0 mi
8:50 am19 °FIce fog.5 mph100%30.30 "Hg0 mi
8:20 am19 °FIce fog.3 mph100%30.33 "Hg0 mi
7:50 am19 °FIce fog.5 mph100%30.30 "Hg0 mi
7:20 am21 °FIce fog.3 mph100%30.33 "Hg0 mi
6:50 am21 °FIce fog.2 mph100%30.33 "Hg0 mi
6:20 am21 °FIce fog.2 mph100%30.33 "Hg0 mi
5:50 am21 °FIce fog.1 mph100%30.33 "Hg0 mi
5:20 am21 °FIce fog.2 mph100%30.33 "Hg0 mi
4:50 am23 °FIce fog.2 mph100%30.33 "Hg0 mi
4:20 am23 °FIce fog.2 mph100%30.33 "Hg0 mi
3:50 am23 °FIce fog.2 mph100%30.33 "Hg0 mi
3:20 am23 °FIce fog.2 mph100%30.33 "Hg0 mi
2:50 am23 °FIce fog.2 mph100%30.33 "Hg1 mi
2:20 am23 °FIce fog.2 mph100%30.36 "Hg2 mi
1:50 am23 °FIce fog.2 mph100%30.36 "Hg2 mi
1:20 am23 °FIce fog.5 mph93%30.36 "Hg3 mi
Weather by CustomWeather, © 2017

See weather overviewHow to use our weather pages